Location: Newark
(48.8833°N, 0.9236°W)
Time: 23:56:25
(UTC+00:00)

Transit 4A - Pass Details

Date: 26 November 2019
Orbit: 870 x 975 km, 66.8° (Epoch: 07 December)

Event Time Altitude Azimuth Distance (km) Brightness Sun altitude
Exits shadow 02:57:48 18° 61° (ENE) 2,022 10.1 -43.6°
Drops below altitude 10° 03:00:00 10° 81° (E) 2,534 10.8 -43.2°
Sets 03:03:01 0° 95° (E) 3,462 11.6 -42.8°
